Regional Weather Roundup
Issued by NWS

Home | Current Version | Previous Version | Graphics & Text | Print | Product List | Glossary On
Versions: 1 2 3 4 5 6 7 8 9 10 11 12 13 14 15 16 17 18 19 20 21 22 23 24 25 26 27 28 29 30 31 32 33 34 35 36 37 38 39 40 41 42 43 44 45 46 47 48 49 50
000
ASUS43 KIND 021359
RWRIN

WEATHER ROUNDUP FOR INDIANA
NATIONAL WEATHER SERVICE INDIANAPOLIS IN
1000 AM EDT TUE JUN 02 2015

NOTE: "FAIR" INDICATES FEW OR NO CLOUDS BELOW 12,000 FEET WITH NO
SIGNIFICANT WEATHER AND/OR OBSTRUCTIONS TO VISIBILITY.

* - STATION DOES NOT REPORT WEATHER SUCH AS PRECIPITATION OR FOG.

+ - STATION NOT QUALITY CONTROLLED BY THE NATIONAL WEATHER SERVICE.
    USE DATA WITH CAUTION...ESPECIALLY DEWPOINT AND RELATIVE
    HUMIDITY OBSERVATIONS.

INZ001>003-010>013-019-020-021500-
NORTHWEST INDIANA

CITY           SKY/WX    TMP DP  RH WIND       PRES   REMARKS
GARY /AIRPORT/ MOSUNNY   61  50  67 SE3       30.22R
RENSSELAER +   SUNNY     59  52  77 E9        30.21S

$$

LMZ046-743>745-021500-
SOUTHERN LAKE MICHIGAN

STATION/POSITION TIME  TEMP    WIND        PRES    WAVE
                       AIR SEA DIR/SP/G            HT
                 (UTC) (F)     (DEG/KT/KT) (MB)    (FT)
BURNS HARBOR     1300   58     200/  6/  7 1023.7R
MICHIGAN CITY    1300   56     120/  4/  6   N/A
5NW MICH CITY    1300   55 55  150/  4/  6   N/A     1

$$

INZ004-005-014>016-021>024-021500-
NORTH CENTRAL INDIANA

CITY           SKY/WX    TMP DP  RH WIND       PRES   REMARKS
ELKHART        SUNNY     59  43  55 E5        30.23R
GOSHEN         SUNNY     60  48  64 NE8       30.22S
SOUTH BEND     SUNNY     61  45  55 E9        30.23S

$$

INZ006>009-017-018-025>027-021500-
NORTHEAST INDIANA

CITY           SKY/WX    TMP DP  RH WIND       PRES   REMARKS
ANGOLA *+      SUNNY     57  46  67 E9        30.21S
FORT WAYNE     MOSUNNY   59  48  67 NE14      30.21S

$$

INZ028-029-035-036-043>045-051>053-021500-
WEST CENTRAL INDIANA

CITY           SKY/WX    TMP DP  RH WIND       PRES   REMARKS
CRAWFORDSVL +  SUNNY     56  46  68 E9        30.18F
GREENCASTLE +  MOSUNNY   55  46  71 NE8       30.18S
LAFAYETTE      SUNNY     58  50  75 E7        30.20R
TERRE HAUTE    PTSUNNY   57  50  77 NE8       30.17S

$$

INZ030>032-037>040-046>048-054>057-064-065-021500-
CENTRAL INDIANA

CITY           SKY/WX    TMP DP  RH WIND       PRES   REMARKS
ANDERSON       CLOUDY    55  46  71 NE8       30.19S
GREENWOOD *+   PTSUNNY   57  48  72 E8        30.18S
INDIANAPOLIS   MOSUNNY   59  48  67 NE9       30.17S
-EAGLE CREEK   MOSUNNY   57  48  72 NE9       30.17S
KOKOMO *+      SUNNY     57  50  77 E9        30.20R
SHELBYVILLE    CLOUDY    58  50  75 NE12      30.17S

$$

INZ033-034-041-042-049-050-058-059-021500-
EAST CENTRAL INDIANA

CITY           SKY/WX    TMP DP  RH WIND       PRES   REMARKS
MUNCIE         MOSUNNY   57  50  77 E12       30.19R

$$

INZ060-061-067>069-081>083-085>088-021500-
SOUTHWEST INDIANA

CITY           SKY/WX    TMP DP  RH WIND       PRES   REMARKS
EVANSVILLE     CLOUDY    58  54  86 NE7       30.15S FOG
HUNTINGBURG *+ CLOUDY    57  52  82 N6        30.15R

$$

INZ062-063-066-070>080-084-089>092-021500-
SOUTH CENTRAL AND SOUTHEAST INDIANA

CITY           SKY/WX    TMP DP  RH WIND       PRES   REMARKS
BLOOMINGTON    CLOUDY    57  51  80 VRB7      30.16R
MADISON *+     CLOUDY    54  50  87 NE7       30.17S
SEYMOUR +      CLOUDY    57  50  77 E3        30.16R

$$



USA.gov is the U.S. government's official web portal to all federal, state and local government web resources and services.